Weather observations for the past three days for
Berlin, Berlin Municipal Airport
Imperial (Metric)
Date Time (edt) Wind (mph) Vis. (mi.) Weather Sky Cond. Temperature (ºF) Relative Humidity Wind Chill (°F) Heat Index (°F) Pressure Precipitation (in)
Air Dwpt 6 hour altimeter (in) sea level (mb) 1 hr 3 hr 6 hr
Max. Min.
15 02:52 N 9 10.00 Mostly Cloudy BKN100 57 50 78% 29.91 1012.7
15 01:52 N 5 10.00 Fair CLR 57 52 71.1 57 83% 29.91 1012.5
15 00:52 N 5 10.00 Fair CLR 57.9 53.1 84% 29.91 1012.4
14 22:52 Calm 10.00 Mostly Cloudy SCT080 BKN110 61 54 78% 29.9 1012.3
14 21:52 Calm 10.00 Mostly Cloudy SCT075 BKN100 63 54 73% 29.88 1011.4
14 20:52 N 3 10.00 Mostly Cloudy BKN070 BKN090 66 54 65% 29.86 1010.8
14 19:52 NW 5 10.00 Fair CLR 71.1 51.1 80.1 71.1 49% 29.84 1010.0
14 18:52 NW 6 10.00 Fair CLR 73 52 48% 29.82 1009.4
14 17:52 NW 6 10.00 Fair CLR 78.1 53.1 42% 79 29.81 1008.7
14 16:52 Vrbl 7 10.00 Fair CLR 79 55 44% 80 29.79 1008.1
14 15:52 W 8 10.00 Fair CLR 79 55 44% 80 29.79 1008.3
14 14:52 NW 8 G 18 10.00 Partly Cloudy SCT070 SCT090 77 57 50% 79 29.79 1008.2
14 13:52 Vrbl 7 10.00 Partly Cloudy FEW034 FEW049 SCT120 75 62.1 80.1 66.9 64% 77 29.8 1008.7
14 12:52 Calm 10.00 Mostly Cloudy SCT044 BKN060 78.1 59 52% 79 29.79 1008.2
14 11:52 SW 6 10.00 A Few Clouds FEW040 FEW060 75 62.1 64% 77 29.8 1008.9
14 10:52 SW 13 G 21 10.00 Mostly Cloudy FEW040 BKN055 73 61 66% 29.81 1009.2
14 09:52 Vrbl 5 10.00 Mostly Cloudy BKN065 BKN075 71.1 62.1 73% 29.8 1008.9
14 08:52 Calm 10.00 Mostly Cloudy BKN095 BKN110 69.1 60.1 73% 29.81 1009.0
14 07:52 Calm 10.00 Fair CLR 68 60.1 73 60.1 76% 29.81 1009.1
14 06:52 Vrbl 5 10.00 Overcast OVC100 68 55.9 65% 29.8 1008.5
14 05:52 SW 6 10.00 Mostly Cloudy BKN110 70 55.9 61% 29.8 1008.5
14 04:52 Vrbl 5 10.00 Partly Cloudy SCT120 71.1 55 57% 29.8 1008.6
14 03:52 NE 3 10.00 Mostly Cloudy BKN080 61 57 87% 29.79 1008.3
14 02:52 Vrbl 3 10.00 Fair CLR 62.1 55.9 80% 29.79 1008.3
14 01:52 N 6 10.00 Fair CLR 62.1 55.9 71.1 57.9 80% 29.82 1009.3
14 00:52 Calm 10.00 A Few Clouds FEW110 62.1 55.9 80% 29.83 1009.8
13 23:52 Calm 10.00 Overcast OVC100 59 55.9 90% 29.84 1010.2
13 22:52 S 3 10.00 Fair CLR 61 55.9 84% 29.85 1010.7
13 21:52 Calm 10.00 Fair CLR 61 55.9 84% 29.87 1011.3
13 20:52 Calm 10.00 A Few Clouds FEW085 66 57 73% 29.88 1011.5
13 19:52 S 6 10.00 Partly Cloudy SCT110 71.1 55.9 80.1 71.1 59% 29.88 1011.6
13 18:52 S 6 10.00 Mostly Cloudy BKN110 73.9 55.9 54% 29.89 1011.9
13 17:52 S 8 10.00 Fair CLR 79 53.1 41% 79 29.88 1011.8
13 16:52 SW 5 10.00 A Few Clouds FEW070 79 51.1 38% 79 29.9 1012.2
13 15:52 S 8 10.00 Fair CLR 79 52 39% 79 29.9 1012.2
13 14:52 Vrbl 7 10.00 Fair CLR 77 55 47% 78 29.92 1013.0
13 13:52 S 5 10.00 Fair CLR 75.9 53.1 75.9 55.9 45% 78 29.94 1013.7
13 12:52 Calm 10.00 A Few Clouds FEW046 75 52 45% 78 29.96 1014.2
13 11:52 SW 5 10.00 A Few Clouds FEW038 72 54 53% 29.98 1015.0
13 10:52 W 5 10.00 Mostly Cloudy BKN035 BKN044 71.1 53.1 53% 29.99 1015.4
13 09:52 NE 5 10.00 Partly Cloudy SCT031 68 53.1 59% 29.99 1015.4
13 08:52 Calm 10.00 Partly Cloudy SCT037 64.9 54 68% 30 1015.7
13 07:52 NW 3 10.00 Partly Cloudy SCT003 57 54 57 48.9 90% 30.01 1016.0
13 06:52 Calm 0.25 Fog VV002 52 51.1 97% 30 1016.0
13 05:52 Calm 0.15 Fog VV002 51.1 50 96% 29.99 1015.6
13 04:52 Calm 0.50 Fog VV002 51.1 50 96% 29.99 1015.6
13 03:52 Calm 1.50 Fog/Mist OVC002 48.9 48 97% 29.97 1015.1
13 02:52 Calm 8.00 Mostly Cloudy BKN001 50 48 93% 29.97 1015.0
13 01:52 Calm 8.00 Fair CLR 50 48.9 66.9 50 96% 29.97 1015.0
13 00:52 Calm 10.00 Mostly Cloudy BKN047 BKN065 54 52 93% 29.98 1015.3
12 23:52 Calm 10.00 Overcast BKN050 OVC075 55.9 54 93% 29.99 1015.7
12 22:52 Calm 10.00 Mostly Cloudy BKN047 BKN055 55.9 54 93% 29.98 1015.4
12 21:52 Calm 10.00 Mostly Cloudy FEW049 BKN060 59 55.9 90% 29.98 1015.2
12 20:52 Calm 10.00 Overcast BKN055 OVC080 62.1 57 84% 29.96 1014.7
12 19:52 Calm 10.00 Mostly Cloudy BKN041 BKN048 66.9 55.9 71.1 66 68% 29.95 1014.1
12 18:52 Calm 10.00 Mostly Cloudy BKN037 68 57 68% 29.95 1014.0
12 17:52 Calm 10.00 Overcast SCT031 BKN075 OVC090 69.1 57 66% 29.95 1014.2
12 16:52 Calm 10.00 Overcast OVC075 68 57 68% 29.96 1014.5
12 15:52 SW 6 10.00 Overcast FEW038 OVC070 66.9 55 66% 29.98 1015.0
12 14:52 SE 5 10.00 Overcast BKN030 BKN041 OVC050 68 55 63% 29.98 1015.2
12 13:52 Calm 10.00 Partly Cloudy FEW027 SCT035 SCT090 66.9 55 71.1 57.9 66% 29.99 1015.6
12 12:52 NW 8 10.00 Partly Cloudy FEW023 SCT100 70 55.9 61% 30.01 1016.2
12 11:52 Calm 10.00 Overcast BKN025 OVC031 66 55 68% 30.03 1016.8
12 10:52 N 5 10.00 Overcast BKN020 OVC025 63 54 73% 30.03 1017.0
12 09:52 Calm 10.00 Overcast BKN014 OVC025 61 55 81% 30.04 1017.3
12 07:52 Calm 10.00 Overcast OVC025 57.9 55 57.9 55.9 90% 30.03 1016.9
12 06:52 Calm 10.00 Overcast OVC024 57 54 90% 30.03 1016.8
12 05:52 Calm 9.00 Overcast SCT020 BKN026 OVC080 55.9 54 93% 30.03 1016.9
12 04:52 Calm 9.00 Overcast FEW029 SCT065 OVC080 55.9 55 97% 30.02 1016.4
12 03:52 Calm 7.00 Overcast BKN001 OVC019 57 55 93% 30.01 1016.0
Date Time (edt) Wind (mph) Vis. (mi.) Weather Sky Cond. Air Dwpt Max. Min. Relative Humidity Wind Chill (°F) Heat Index (°F) altimeter (in) sea level (mb) 1 hr 3 hr 6 hr
6 hour
Temperature (ºF) Pressure Precipitation (in)